Location: San Vito
(41.8833°N, 12.9833°E)
Time: 08:47:36
(UTC+00:00)

Cosmos 2151 - Pass Details

Date: 17 November 2019
Orbit: 581 x 602 km, 82.5° (Epoch: 12 December)

Event Time Altitude Azimuth Distance (km) Brightness Sun altitude
Rises 05:00:51 0° 217° (SW) 2,839 6.2 -11.1°
Reaches altitude 10° 05:03:23 10° 231° (SW) 1,942 5.3 -10.6°
Maximum altitude 05:06:55 24° 286° (WNW) 1,249 4.0 -10.0°
Drops below altitude 10° 05:10:28 10° 342° (NNW) 1,954 5.3 -9.4°
Sets 05:13:02 0° 356° (N) 2,860 6.3 -8.9°
